TimeIST,TemperatureF,Dew PointF,Humidity,Sea Level PressureIn,VisibilityMPH,Wind Direction,Wind SpeedMPH,Gust SpeedMPH,PrecipitationIn,Events,Conditions,WindDirDegrees,DateUTC
12:10 AM,84.2,73.4,70,29.74,2.5,Calm,Calm,-,N/A,,Haze,0,2012-10-01 18:40:00
12:40 AM,82.4,73.4,74,29.74,2.5,Calm,Calm,-,N/A,,Haze,0,2012-10-01 19:10:00
1:10 AM,82.4,71.6,70,29.74,2.5,Calm,Calm,-,N/A,,Haze,0,2012-10-01 19:40:00
1:40 AM,82.4,69.8,66,29.74,2.5,Calm,Calm,-,N/A,,Haze,0,2012-10-01 20:10:00
2:10 AM,80.6,69.8,70,29.74,2.5,Calm,Calm,-,N/A,,Haze,0,2012-10-01 20:40:00
2:30 AM,81,70,63,29.73,1,Calm,Calm,,,,Haze,,2012-10-01 21:00:00
2:40 AM,80.6,69.8,70,29.71,2.5,Calm,Calm,-,N/A,,Haze,0,2012-10-01 21:10:00
3:10 AM,80.6,69.8,70,29.71,2.5,Calm,Calm,-,N/A,,Haze,0,2012-10-01 21:40:00
3:40 AM,80.6,69.8,70,29.71,2.5,Calm,Calm,-,N/A,,Haze,0,2012-10-01 22:10:00
4:10 AM,80.6,68.0,65,29.71,2.5,Calm,Calm,-,N/A,,Haze,0,2012-10-01 22:40:00
4:40 AM,78.8,68.0,69,29.71,2.5,Calm,Calm,-,N/A,,Haze,0,2012-10-01 23:10:00
5:10 AM,78.8,68.0,69,29.71,2.5,Calm,Calm,-,N/A,,Smoke,0,2012-10-01 23:40:00
5:30 AM,80,69,60,29.72,1,North,2.3,,,,Haze,0,2012-10-02 00:00:00
5:40 AM,78.8,68.0,69,29.71,2.5,Calm,Calm,-,N/A,,Smoke,0,2012-10-02 00:10:00
6:10 AM,78.8,66.2,65,29.71,2.5,Calm,Calm,-,N/A,,Smoke,0,2012-10-02 00:40:00
6:40 AM,78.8,68.0,69,29.74,2.2,Variable,2.3,-,N/A,,Haze,0,2012-10-02 01:10:00
7:40 AM,80.6,68.0,65,29.74,1.9,NE,3.5,-,N/A,,Haze,40,2012-10-02 02:10:00
8:10 AM,82.4,69.8,66,29.74,1.9,NE,3.5,-,N/A,,Haze,50,2012-10-02 02:40:00
8:30 AM,84,68,50,29.77,2,NE,4.6,,,,Haze,50,2012-10-02 03:00:00
9:10 AM,87.8,69.8,55,29.77,2.5,NE,6.9,-,N/A,,Smoke,50,2012-10-02 03:40:00
10:10 AM,91.4,80.6,71,29.77,2.5,East,6.9,-,N/A,,Smoke,80,2012-10-02 04:40:00
11:10 AM,96.8,75.2,50,29.74,3.1,East,6.9,-,N/A,,Smoke,80,2012-10-02 05:40:00
11:30 AM,94,73,41,29.78,2,NE,5.8,,,,Scattered Clouds,50,2012-10-02 06:00:00
11:40 AM,96.8,71.6,44,29.74,3.1,East,6.9,-,N/A,,Smoke,80,2012-10-02 06:10:00
12:10 PM,96.8,73.4,47,29.74,3.1,East,9.2,-,N/A,,Smoke,100,2012-10-02 06:40:00
1:10 PM,98.6,73.4,44,29.71,3.7,ENE,9.2,-,N/A,,Unknown,60,2012-10-02 07:40:00
1:40 PM,100.4,78.8,50,29.68,3.7,ESE,5.8,-,N/A,,Unknown,110,2012-10-02 08:10:00
2:10 PM,100.4,78.8,50,29.68,3.7,East,4.6,-,N/A,,Unknown,80,2012-10-02 08:40:00
2:30 PM,97,74,39,29.71,2,SE,4.6,,,,Partly Cloudy,140,2012-10-02 09:00:00
2:40 PM,100.4,75.2,44,29.68,3.7,East,5.8,-,N/A,,Unknown,80,2012-10-02 09:10:00
3:40 PM,100.4,71.6,39,29.65,3.7,NE,4.6,-,N/A,,Unknown,40,2012-10-02 10:10:00
4:10 PM,100.4,71.6,39,29.65,3.7,NE,4.6,-,N/A,,Unknown,40,2012-10-02 10:40:00
4:40 PM,98.6,71.6,42,29.62,3.7,NE,4.6,-,N/A,,Unknown,50,2012-10-02 11:10:00
5:10 PM,98.6,69.8,39,29.62,3.7,ENE,4.6,-,N/A,,Unknown,60,2012-10-02 11:40:00
5:30 PM,94,67,32,29.67,2,North,3.5,,,,Scattered Clouds,0,2012-10-02 12:00:00
5:40 PM,96.8,68.0,39,29.65,3.7,East,4.6,-,N/A,,Unknown,80,2012-10-02 12:10:00
7:10 PM,93.2,71.6,49,29.68,2.5,Calm,Calm,-,N/A,,Smoke,0,2012-10-02 13:40:00
7:40 PM,91.4,71.6,52,29.68,2.5,Calm,Calm,-,N/A,,Smoke,0,2012-10-02 14:10:00
8:10 PM,89.6,73.4,59,29.71,2.5,Calm,Calm,-,N/A,,Smoke,0,2012-10-02 14:40:00
8:30 PM,86,74,60,29.72,2,Calm,Calm,,,,Haze,,2012-10-02 15:00:00
8:40 PM,89.6,75.2,62,29.71,2.5,Calm,Calm,-,N/A,,Smoke,0,2012-10-02 15:10:00
9:10 PM,87.8,75.2,66,29.71,2.5,Calm,Calm,-,N/A,,Smoke,0,2012-10-02 15:40:00
9:40 PM,87.8,75.2,66,29.71,2.5,Calm,Calm,-,N/A,,Smoke,0,2012-10-02 16:10:00
10:10 PM,87.8,75.2,66,29.74,2.5,Calm,Calm,-,N/A,,Smoke,0,2012-10-02 16:40:00
10:40 PM,86.0,75.2,70,29.71,2.5,Calm,Calm,-,N/A,,Smoke,0,2012-10-02 17:10:00
11:10 PM,84.2,77.0,79,29.71,2.5,Calm,Calm,-,N/A,,Haze,0,2012-10-02 17:40:00
11:30 PM,82,75,73,29.73,1,Calm,Calm,,,,Haze,,2012-10-02 18:00:00